SNAP-3 JIMI

Last updated on Sun Dec 14 2025 00:03:50 GMT+0000 (Coordinated Universal Time)

1 40975U 15058M 25346.98441748 .00011363 00000+0 81155-3 0 9995 2 40975 64.7663 87.8336 0112762 131.9052 229.1750 14.99814819 86277
UTC large
Height (km)
Speed (km/s)
/
Latitude / Longitude
Inclination (degrees)
Orbital Period (minutes)
Azimuth
Elevation
Range (km)
Doppler Factor

Next 0 passes for location: London (51.5072 / 0.1276)

Sorry there are no passes over London.